Year,Month,Day,Hour,Minute,Value (Times are PST for windspeed in km/hr)
2022,05,18,00,00,0.60
2022,05,18,00,01,0.00
2022,05,18,00,02,0.00
2022,05,18,00,03,0.00
2022,05,18,00,04,0.00
2022,05,18,00,05,0.00
2022,05,18,00,06,0.00
2022,05,18,00,07,0.00
2022,05,18,00,08,0.00
2022,05,18,00,09,0.00
2022,05,18,00,10,0.00
2022,05,18,00,11,0.00
2022,05,18,00,12,0.00
2022,05,18,00,13,0.00
2022,05,18,00,14,0.00
2022,05,18,00,15,0.00
2022,05,18,00,16,0.00
2022,05,18,00,17,0.00
2022,05,18,00,18,0.00
2022,05,18,00,19,0.00
2022,05,18,00,20,0.00
2022,05,18,00,21,0.00
2022,05,18,00,22,0.00
2022,05,18,00,23,0.00
2022,05,18,00,24,0.00
2022,05,18,00,25,0.00
2022,05,18,00,26,0.00
2022,05,18,00,27,0.00
2022,05,18,00,28,0.00
2022,05,18,00,29,0.00
2022,05,18,00,30,0.00
2022,05,18,00,31,0.00
2022,05,18,00,32,0.00
2022,05,18,00,33,0.00
2022,05,18,00,34,0.00
2022,05,18,00,35,0.00
2022,05,18,00,36,0.00
2022,05,18,00,37,0.00
2022,05,18,00,38,0.00
2022,05,18,00,39,0.00
2022,05,18,00,40,0.00
2022,05,18,00,41,0.00
2022,05,18,00,42,0.00
2022,05,18,00,43,0.00
2022,05,18,00,44,0.70
2022,05,18,00,45,2.80
2022,05,18,00,46,2.40
2022,05,18,00,47,2.00
2022,05,18,00,48,1.00
2022,05,18,00,49,0.00
2022,05,18,00,50,0.00
2022,05,18,00,51,0.00
2022,05,18,00,52,0.00
2022,05,18,00,53,0.00
2022,05,18,00,54,0.00
2022,05,18,00,55,0.00
2022,05,18,00,56,0.00
2022,05,18,00,57,0.00
2022,05,18,00,58,0.00
2022,05,18,00,59,0.00
2022,05,18,01,00,0.00
2022,05,18,01,01,0.00
2022,05,18,01,02,0.00
2022,05,18,01,03,0.00
2022,05,18,01,04,0.00
2022,05,18,01,05,0.00
2022,05,18,01,06,0.00
2022,05,18,01,07,0.00
2022,05,18,01,08,0.70
2022,05,18,01,09,0.00
2022,05,18,01,10,0.00
2022,05,18,01,11,0.00
2022,05,18,01,12,0.00
2022,05,18,01,13,0.00
2022,05,18,01,14,0.00
2022,05,18,01,15,0.00
2022,05,18,01,16,0.00
2022,05,18,01,17,0.00
2022,05,18,01,18,0.00
2022,05,18,01,19,0.10
2022,05,18,01,20,0.00
2022,05,18,01,21,0.00
2022,05,18,01,22,0.00
2022,05,18,01,23,0.00
2022,05,18,01,24,0.60
2022,05,18,01,25,0.70
2022,05,18,01,26,0.00
2022,05,18,01,27,0.00
2022,05,18,01,28,0.00
2022,05,18,01,29,0.00
2022,05,18,01,30,0.00
2022,05,18,01,31,0.00
2022,05,18,01,32,0.00
2022,05,18,01,33,0.00
2022,05,18,01,34,0.00
2022,05,18,01,35,0.00
2022,05,18,01,36,0.00
2022,05,18,01,37,0.00
2022,05,18,01,38,2.80
2022,05,18,01,39,4.00
2022,05,18,01,40,1.60
2022,05,18,01,41,0.00
2022,05,18,01,42,0.00
2022,05,18,01,43,0.00
2022,05,18,01,44,0.00
2022,05,18,01,45,0.00
2022,05,18,01,46,0.00
2022,05,18,01,47,0.00
2022,05,18,01,48,0.00
2022,05,18,01,49,0.20
2022,05,18,01,50,2.10
2022,05,18,01,51,1.50
2022,05,18,01,52,0.00
2022,05,18,01,53,0.00
2022,05,18,01,54,1.20
2022,05,18,01,55,1.40
2022,05,18,01,56,0.00
2022,05,18,01,57,0.00
2022,05,18,01,58,0.00
2022,05,18,01,59,0.00
2022,05,18,02,00,0.00
2022,05,18,02,01,0.00
2022,05,18,02,02,0.00
2022,05,18,02,03,0.00
2022,05,18,02,04,0.00
2022,05,18,02,05,0.00
2022,05,18,02,06,0.00
2022,05,18,02,07,0.00
2022,05,18,02,08,0.00
2022,05,18,02,09,0.00
2022,05,18,02,10,0.00
2022,05,18,02,11,0.00
2022,05,18,02,12,0.00
2022,05,18,02,13,0.00
2022,05,18,02,14,0.00
2022,05,18,02,15,0.00
2022,05,18,02,16,0.00
2022,05,18,02,17,0.00
2022,05,18,02,18,0.00
2022,05,18,02,19,0.00
2022,05,18,02,20,0.00
2022,05,18,02,21,0.00
2022,05,18,02,22,0.00
2022,05,18,02,23,0.00
2022,05,18,02,24,0.00
2022,05,18,02,25,0.00
2022,05,18,02,26,0.00
2022,05,18,02,27,0.00
2022,05,18,02,28,0.00
2022,05,18,02,29,0.00
2022,05,18,02,30,0.00
2022,05,18,02,31,0.00
2022,05,18,02,32,0.00
2022,05,18,02,33,0.00
2022,05,18,02,34,0.00
2022,05,18,02,35,0.00
2022,05,18,02,36,0.00
2022,05,18,02,37,0.00
2022,05,18,02,38,0.00
2022,05,18,02,39,0.00
2022,05,18,02,40,0.00
2022,05,18,02,41,0.00
2022,05,18,02,42,0.00
2022,05,18,02,43,0.00
2022,05,18,02,44,0.00
2022,05,18,02,45,0.00
2022,05,18,02,46,0.00
2022,05,18,02,47,0.00
2022,05,18,02,48,0.00
2022,05,18,02,49,0.00
2022,05,18,02,50,0.00
2022,05,18,02,51,0.00
2022,05,18,02,52,0.00
2022,05,18,02,53,0.00
2022,05,18,02,54,0.00
2022,05,18,02,55,0.00
2022,05,18,02,56,0.00
2022,05,18,02,57,0.00
2022,05,18,02,58,0.00
2022,05,18,02,59,0.00
2022,05,18,03,00,0.00
2022,05,18,03,01,0.00
2022,05,18,03,02,0.00
2022,05,18,03,03,0.00
2022,05,18,03,04,0.00
2022,05,18,03,05,0.00
2022,05,18,03,06,0.00
2022,05,18,03,07,0.00
2022,05,18,03,08,0.00
2022,05,18,03,09,0.00
2022,05,18,03,10,0.00
2022,05,18,03,11,0.00
2022,05,18,03,12,0.00
2022,05,18,03,13,0.00
2022,05,18,03,14,0.00
2022,05,18,03,15,0.00
2022,05,18,03,16,0.00
2022,05,18,03,17,0.00
2022,05,18,03,18,0.00
2022,05,18,03,19,0.00
2022,05,18,03,20,0.00
2022,05,18,03,21,0.00
2022,05,18,03,22,0.00
2022,05,18,03,23,0.00
2022,05,18,03,24,0.00
2022,05,18,03,25,0.00
2022,05,18,03,26,0.00
2022,05,18,03,27,0.00
2022,05,18,03,28,0.00
2022,05,18,03,29,0.00
2022,05,18,03,30,0.00
2022,05,18,03,31,0.00
2022,05,18,03,32,0.00
2022,05,18,03,33,0.00
2022,05,18,03,34,0.00
2022,05,18,03,35,0.00
2022,05,18,03,36,0.00
2022,05,18,03,37,0.00
2022,05,18,03,38,0.00
2022,05,18,03,39,0.00
2022,05,18,03,40,0.00
2022,05,18,03,41,0.00
2022,05,18,03,42,0.00
2022,05,18,03,43,0.00
2022,05,18,03,44,0.00
2022,05,18,03,45,0.00
2022,05,18,03,46,0.00
2022,05,18,03,47,0.00
2022,05,18,03,48,0.00
2022,05,18,03,49,0.00
2022,05,18,03,50,0.00
2022,05,18,03,51,0.00
2022,05,18,03,52,0.00
2022,05,18,03,53,0.00
2022,05,18,03,54,0.00
2022,05,18,03,55,0.00
2022,05,18,03,56,0.00
2022,05,18,03,57,0.00
2022,05,18,03,58,0.00
2022,05,18,03,59,0.00
2022,05,18,04,00,0.00
2022,05,18,04,01,0.00
2022,05,18,04,02,0.00
2022,05,18,04,03,0.00
2022,05,18,04,04,0.00
2022,05,18,04,05,0.00
2022,05,18,04,06,0.00
2022,05,18,04,07,0.00
2022,05,18,04,08,0.00
2022,05,18,04,09,0.00
2022,05,18,04,10,0.00
2022,05,18,04,11,0.00
2022,05,18,04,12,0.00
2022,05,18,04,13,0.00
2022,05,18,04,14,0.00
2022,05,18,04,15,2.10
2022,05,18,04,16,0.20
2022,05,18,04,17,1.90
2022,05,18,04,18,2.00
2022,05,18,04,19,0.00
2022,05,18,04,20,0.00
2022,05,18,04,21,0.00
2022,05,18,04,22,0.00
2022,05,18,04,23,0.00
2022,05,18,04,24,3.50
2022,05,18,04,25,1.60
2022,05,18,04,26,0.00
2022,05,18,04,27,3.90
2022,05,18,04,28,1.00
2022,05,18,04,29,0.30
2022,05,18,04,30,2.80
2022,05,18,04,31,4.40
2022,05,18,04,32,5.30
2022,05,18,04,33,7.30
2022,05,18,04,34,5.30
2022,05,18,04,35,3.90
2022,05,18,04,36,5.80
2022,05,18,04,37,5.50
2022,05,18,04,38,7.20
2022,05,18,04,39,7.60
2022,05,18,04,40,6.20
2022,05,18,04,41,5.40
2022,05,18,04,42,10.60
2022,05,18,04,43,7.50
2022,05,18,04,44,10.10
2022,05,18,04,45,7.90
2022,05,18,04,46,8.10
2022,05,18,04,47,14.80
2022,05,18,04,48,8.50
2022,05,18,04,49,11.30
2022,05,18,04,50,8.60
2022,05,18,04,51,9.30
2022,05,18,04,52,10.30
2022,05,18,04,53,5.70
2022,05,18,04,54,6.60
2022,05,18,04,55,10.60
2022,05,18,04,56,7.10
2022,05,18,04,57,2.50
2022,05,18,04,58,6.80
2022,05,18,04,59,9.90
2022,05,18,05,00,11.10
2022,05,18,05,01,6.10
2022,05,18,05,02,8.80
2022,05,18,05,03,6.00
2022,05,18,05,04,8.50
2022,05,18,05,05,7.80
2022,05,18,05,06,6.90
2022,05,18,05,07,7.30
2022,05,18,05,08,12.50
2022,05,18,05,09,10.90
2022,05,18,05,10,7.00
2022,05,18,05,11,6.70
2022,05,18,05,12,7.00
2022,05,18,05,13,3.90
2022,05,18,05,14,6.60
2022,05,18,05,15,1.90
2022,05,18,05,16,11.10
2022,05,18,05,17,12.20
2022,05,18,05,18,7.20
2022,05,18,05,19,6.80
2022,05,18,05,20,12.40
2022,05,18,05,21,12.60
2022,05,18,05,22,6.40
2022,05,18,05,23,6.90
2022,05,18,05,24,10.30
2022,05,18,05,25,9.20
2022,05,18,05,26,13.40
2022,05,18,05,27,9.90
2022,05,18,05,28,9.70
2022,05,18,05,29,5.80
2022,05,18,05,30,2.50
2022,05,18,05,31,3.80
2022,05,18,05,32,10.10
2022,05,18,05,33,10.20
2022,05,18,05,34,12.00
2022,05,18,05,35,10.30
2022,05,18,05,36,5.40
2022,05,18,05,37,6.30
2022,05,18,05,38,8.90
2022,05,18,05,39,9.40
2022,05,18,05,40,9.30
2022,05,18,05,41,6.70
2022,05,18,05,42,5.80
2022,05,18,05,43,7.70
2022,05,18,05,44,3.90
2022,05,18,05,45,8.50
2022,05,18,05,46,4.80
2022,05,18,05,47,9.10
2022,05,18,05,48,9.90
2022,05,18,05,49,11.00
2022,05,18,05,50,10.90
2022,05,18,05,51,6.10
2022,05,18,05,52,9.70
2022,05,18,05,53,6.50
2022,05,18,05,54,7.50
2022,05,18,05,55,7.40
2022,05,18,05,56,9.50
2022,05,18,05,57,7.80
2022,05,18,05,58,7.30
2022,05,18,05,59,9.20
2022,05,18,06,00,15.00
2022,05,18,06,01,16.30
2022,05,18,06,02,7.20
2022,05,18,06,03,11.00
2022,05,18,06,04,8.80
2022,05,18,06,05,12.20
2022,05,18,06,06,11.60
2022,05,18,06,07,9.80
2022,05,18,06,08,6.50
2022,05,18,06,09,11.10
2022,05,18,06,10,10.90
2022,05,18,06,11,5.70
2022,05,18,06,12,7.70
2022,05,18,06,13,8.40
2022,05,18,06,14,12.00
2022,05,18,06,15,10.50
2022,05,18,06,16,12.80
2022,05,18,06,17,6.50
2022,05,18,06,18,12.10
2022,05,18,06,19,13.80
2022,05,18,06,20,12.60
2022,05,18,06,21,13.30
2022,05,18,06,22,13.20
2022,05,18,06,23,4.00
2022,05,18,06,24,8.40
2022,05,18,06,25,8.50
2022,05,18,06,26,6.00
2022,05,18,06,27,7.00
2022,05,18,06,28,10.10
2022,05,18,06,29,5.10
2022,05,18,06,30,9.70
2022,05,18,06,31,5.60
2022,05,18,06,32,9.00
2022,05,18,06,33,16.40
2022,05,18,06,34,18.70
2022,05,18,06,35,22.10
2022,05,18,06,36,14.70
2022,05,18,06,37,5.90
2022,05,18,06,38,3.00
2022,05,18,06,39,10.60
2022,05,18,06,40,8.40
2022,05,18,06,41,6.70
2022,05,18,06,42,8.70
2022,05,18,06,43,5.30
2022,05,18,06,44,9.70
2022,05,18,06,45,4.80
2022,05,18,06,46,8.00
2022,05,18,06,47,15.40
2022,05,18,06,48,10.40
2022,05,18,06,49,17.40
2022,05,18,06,50,13.00
2022,05,18,06,51,11.10
2022,05,18,06,52,6.70
2022,05,18,06,53,4.20
2022,05,18,06,54,6.80
2022,05,18,06,55,3.90
2022,05,18,06,56,8.30
2022,05,18,06,57,5.50
2022,05,18,06,58,11.60
2022,05,18,06,59,11.80
2022,05,18,07,00,9.60
2022,05,18,07,01,10.70
2022,05,18,07,02,5.50
2022,05,18,07,03,10.20
2022,05,18,07,04,6.00
2022,05,18,07,05,5.20
2022,05,18,07,06,11.00
2022,05,18,07,07,8.50
2022,05,18,07,08,9.00
2022,05,18,07,09,11.40
2022,05,18,07,10,11.00
2022,05,18,07,11,10.80
2022,05,18,07,12,5.30
2022,05,18,07,13,1.50
2022,05,18,07,14,4.60
2022,05,18,07,15,9.90
2022,05,18,07,16,9.90
2022,05,18,07,17,11.60
2022,05,18,07,18,6.20
2022,05,18,07,19,6.00
2022,05,18,07,20,13.60
2022,05,18,07,21,5.40
2022,05,18,07,22,9.60
2022,05,18,07,23,9.70
2022,05,18,07,24,7.20
2022,05,18,07,25,8.50
2022,05,18,07,26,11.20
2022,05,18,07,27,8.50
2022,05,18,07,28,10.20
2022,05,18,07,29,3.20
2022,05,18,07,30,7.30
2022,05,18,07,31,3.30
2022,05,18,07,32,13.40
2022,05,18,07,33,11.20
2022,05,18,07,34,9.00
2022,05,18,07,35,5.20
2022,05,18,07,36,2.00
2022,05,18,07,37,1.60
2022,05,18,07,38,1.00
2022,05,18,07,39,1.00
2022,05,18,07,40,5.30
2022,05,18,07,41,0.50
2022,05,18,07,42,0.30
2022,05,18,07,43,0.30
2022,05,18,07,44,5.60
2022,05,18,07,45,4.20
2022,05,18,07,46,2.90
2022,05,18,07,47,2.50
2022,05,18,07,48,4.80
2022,05,18,07,49,2.50
2022,05,18,07,50,4.20
2022,05,18,07,51,1.00
2022,05,18,07,52,1.40
2022,05,18,07,53,1.90
2022,05,18,07,54,4.30
2022,05,18,07,55,3.30
2022,05,18,07,56,4.00
2022,05,18,07,57,3.10
2022,05,18,07,58,2.80
2022,05,18,07,59,5.80
2022,05,18,08,00,2.60
2022,05,18,08,01,2.30
2022,05,18,08,02,0.20
2022,05,18,08,03,0.80
2022,05,18,08,04,3.40
2022,05,18,08,05,6.80
2022,05,18,08,06,7.90
2022,05,18,08,07,1.60
2022,05,18,08,08,0.00
2022,05,18,08,09,3.10
2022,05,18,08,10,0.90
2022,05,18,08,11,0.00
2022,05,18,08,12,0.00
2022,05,18,08,13,1.50
2022,05,18,08,14,5.70
2022,05,18,08,15,3.30
2022,05,18,08,16,3.40
2022,05,18,08,17,5.30
2022,05,18,08,18,2.20
2022,05,18,08,19,6.70
2022,05,18,08,20,1.80
2022,05,18,08,21,6.20
2022,05,18,08,22,3.00
2022,05,18,08,23,2.60
2022,05,18,08,24,1.90
2022,05,18,08,25,4.20
2022,05,18,08,26,0.00
2022,05,18,08,27,4.70
2022,05,18,08,28,0.50
2022,05,18,08,29,7.80
2022,05,18,08,30,9.50
2022,05,18,08,31,4.20
2022,05,18,08,32,2.60
2022,05,18,08,33,4.40
2022,05,18,08,34,6.80
2022,05,18,08,35,3.50
2022,05,18,08,36,1.20
2022,05,18,08,37,0.00
2022,05,18,08,38,0.80
2022,05,18,08,39,1.20
2022,05,18,08,40,2.80
2022,05,18,08,41,0.70
2022,05,18,08,42,0.00
2022,05,18,08,43,1.40
2022,05,18,08,44,7.70
2022,05,18,08,45,5.10
2022,05,18,08,46,3.90
2022,05,18,08,47,4.20
2022,05,18,08,48,2.40
2022,05,18,08,49,0.10
2022,05,18,08,50,0.00
2022,05,18,08,51,1.40
2022,05,18,08,52,4.50
2022,05,18,08,53,6.80
2022,05,18,08,54,3.60
2022,05,18,08,55,1.10
2022,05,18,08,56,5.80
2022,05,18,08,57,2.60
2022,05,18,08,58,8.00
2022,05,18,08,59,12.30
2022,05,18,09,00,5.20
2022,05,18,09,01,0.20
2022,05,18,09,02,0.00
2022,05,18,09,03,2.90
2022,05,18,09,04,0.00
2022,05,18,09,05,0.30
2022,05,18,09,06,0.00
2022,05,18,09,07,4.10
2022,05,18,09,08,5.10
2022,05,18,09,09,2.70
2022,05,18,09,10,6.00
2022,05,18,09,11,13.20
2022,05,18,09,12,6.60
2022,05,18,09,13,4.50
2022,05,18,09,14,14.60
2022,05,18,09,15,10.50
2022,05,18,09,16,5.20
2022,05,18,09,17,6.40
2022,05,18,09,18,5.70
2022,05,18,09,19,14.20
2022,05,18,09,20,11.60
2022,05,18,09,21,13.30
2022,05,18,09,22,4.30
2022,05,18,09,23,6.80
2022,05,18,09,24,7.20
2022,05,18,09,25,8.30
2022,05,18,09,26,6.70
2022,05,18,09,27,6.10
2022,05,18,09,28,12.20
2022,05,18,09,29,14.70
2022,05,18,09,30,15.90
2022,05,18,09,31,3.80
2022,05,18,09,32,10.70
2022,05,18,09,33,8.90
2022,05,18,09,34,5.40
2022,05,18,09,35,7.50
2022,05,18,09,36,3.90
2022,05,18,09,37,14.90
2022,05,18,09,38,10.70
2022,05,18,09,39,20.50
2022,05,18,09,40,14.10
2022,05,18,09,41,12.90
2022,05,18,09,42,12.20
2022,05,18,09,43,14.20
2022,05,18,09,44,8.40
2022,05,18,09,45,7.80
2022,05,18,09,46,10.80
2022,05,18,09,47,11.60
2022,05,18,09,48,20.10
2022,05,18,09,49,8.60
2022,05,18,09,50,12.90
2022,05,18,09,51,8.80
2022,05,18,09,52,5.40
2022,05,18,09,53,17.30
2022,05,18,09,54,9.00
2022,05,18,09,55,10.10
2022,05,18,09,56,11.00
2022,05,18,09,57,13.90
2022,05,18,09,58,11.20
2022,05,18,09,59,7.90
2022,05,18,10,00,7.70
2022,05,18,10,01,5.80
2022,05,18,10,02,21.20
2022,05,18,10,03,9.00
2022,05,18,10,04,24.90
2022,05,18,10,05,25.70
2022,05,18,10,06,10.30
2022,05,18,10,07,10.00
2022,05,18,10,08,8.40
2022,05,18,10,09,10.60
2022,05,18,10,10,7.50
2022,05,18,10,11,5.60
2022,05,18,10,12,7.90
2022,05,18,10,13,23.90
2022,05,18,10,14,23.00
2022,05,18,10,15,13.00
2022,05,18,10,16,7.50
2022,05,18,10,17,13.40
2022,05,18,10,18,17.80
2022,05,18,10,19,14.80
2022,05,18,10,20,22.00
2022,05,18,10,21,11.90
2022,05,18,10,22,9.10
2022,05,18,10,23,8.30
2022,05,18,10,24,17.50
2022,05,18,10,25,22.50
2022,05,18,10,26,20.50
2022,05,18,10,27,23.40
2022,05,18,10,28,21.90
2022,05,18,10,29,16.60
2022,05,18,10,30,15.90
2022,05,18,10,31,25.70
2022,05,18,10,32,8.80
2022,05,18,10,33,13.20
2022,05,18,10,34,19.10
2022,05,18,10,35,14.70
2022,05,18,10,36,17.80
2022,05,18,10,37,17.30
2022,05,18,10,38,12.90
2022,05,18,10,39,15.90
2022,05,18,10,40,29.00
2022,05,18,10,41,12.00
2022,05,18,10,42,20.70
2022,05,18,10,43,18.20
2022,05,18,10,44,12.40
2022,05,18,10,45,6.80
2022,05,18,10,46,13.40
2022,05,18,10,47,20.60
2022,05,18,10,48,17.90
2022,05,18,10,49,22.90
2022,05,18,10,50,15.50
2022,05,18,10,51,15.10
2022,05,18,10,52,20.50
2022,05,18,10,53,14.80
2022,05,18,10,54,23.50
2022,05,18,10,55,24.90
2022,05,18,10,56,13.10
2022,05,18,10,57,13.30
2022,05,18,10,58,23.20
2022,05,18,10,59,8.40
2022,05,18,11,00,21.70
2022,05,18,11,01,8.70
2022,05,18,11,02,15.90
2022,05,18,11,03,9.80
2022,05,18,11,04,10.90
2022,05,18,11,05,14.10
2022,05,18,11,06,16.80
2022,05,18,11,07,10.10
2022,05,18,11,08,4.70
2022,05,18,11,09,1.90
2022,05,18,11,10,1.50
2022,05,18,11,11,6.30
2022,05,18,11,12,5.80
2022,05,18,11,13,6.90
2022,05,18,11,14,1.20
2022,05,18,11,15,0.50
2022,05,18,11,16,1.70
2022,05,18,11,17,0.60
2022,05,18,11,18,2.70
2022,05,18,11,19,2.50
2022,05,18,11,20,2.20
2022,05,18,11,21,4.20
2022,05,18,11,22,0.40
2022,05,18,11,23,2.70
2022,05,18,11,24,5.70
2022,05,18,11,25,3.50
2022,05,18,11,26,10.50
2022,05,18,11,27,13.40
2022,05,18,11,28,19.30
2022,05,18,11,29,11.40
2022,05,18,11,30,7.70
2022,05,18,11,31,16.50
2022,05,18,11,32,6.30
2022,05,18,11,33,3.70
2022,05,18,11,34,2.70
2022,05,18,11,35,2.30
2022,05,18,11,36,9.20
2022,05,18,11,37,7.60
2022,05,18,11,38,1.00
2022,05,18,11,39,0.60
2022,05,18,11,40,0.00
2022,05,18,11,41,2.50
2022,05,18,11,42,4.50
2022,05,18,11,43,9.70
2022,05,18,11,44,4.50
2022,05,18,11,45,6.10
2022,05,18,11,46,5.80
2022,05,18,11,50,5.40
2022,05,18,11,51,7.30
2022,05,18,11,52,3.70
2022,05,18,11,53,6.00
2022,05,18,11,54,10.30
2022,05,18,11,58,4.90
2022,05,18,11,59,4.50
2022,05,18,12,00,0.70
2022,05,18,12,01,4.10
2022,05,18,12,02,4.00
2022,05,18,12,03,4.60
2022,05,18,12,04,3.50
2022,05,18,12,05,5.20
2022,05,18,12,06,0.10
2022,05,18,12,07,2.70
2022,05,18,12,08,4.10
2022,05,18,12,09,3.50
2022,05,18,12,10,7.70
2022,05,18,12,11,7.00
2022,05,18,12,12,6.40
2022,05,18,12,13,6.00
2022,05,18,12,14,1.40
2022,05,18,12,15,8.50
2022,05,18,12,16,8.60
2022,05,18,12,17,9.80
2022,05,18,12,18,6.80
2022,05,18,12,19,8.30
2022,05,18,12,20,7.50
2022,05,18,12,21,3.50
2022,05,18,12,22,3.40
2022,05,18,12,23,4.50
2022,05,18,12,24,9.60
2022,05,18,12,25,1.80
2022,05,18,12,29,5.80
2022,05,18,12,30,5.30
2022,05,18,12,31,5.30
2022,05,18,12,32,11.00
2022,05,18,12,33,9.30
2022,05,18,12,34,9.40
2022,05,18,12,35,14.80
2022,05,18,12,36,11.40
2022,05,18,12,37,11.10
2022,05,18,12,38,13.60
2022,05,18,12,39,16.70
2022,05,18,12,40,5.60
2022,05,18,12,41,3.00
2022,05,18,12,42,20.60
2022,05,18,12,43,7.90
2022,05,18,12,44,15.60
2022,05,18,12,45,8.30
2022,05,18,12,46,8.00
2022,05,18,12,47,1.60
2022,05,18,12,48,2.70
2022,05,18,12,49,11.70
2022,05,18,12,50,10.60
2022,05,18,12,51,4.90
2022,05,18,12,52,8.50
2022,05,18,12,53,8.70
2022,05,18,12,54,14.50
2022,05,18,12,55,13.40
2022,05,18,12,56,14.60
2022,05,18,12,57,2.30
2022,05,18,12,58,2.90
2022,05,18,12,59,14.10
2022,05,18,13,00,10.40
2022,05,18,13,01,11.10
2022,05,18,13,02,13.40
2022,05,18,13,03,6.90
2022,05,18,13,04,13.50
2022,05,18,13,05,1.40
2022,05,18,13,06,14.20
2022,05,18,13,07,11.30
